Location: Amarillo Post Office Jordan Station
(35.1907°N, 101.9342°W)
Time: 13:00:25
(UTC+00:00)

ATLAS CENTAUR R/B - Pass Details

Date: 24 January 2021
Orbit: 471 x 674 km, 64.6° (Epoch: 28 February)

Event Time Altitude Azimuth Distance (km) Brightness Sun altitude
Exits shadow 12:23:00 50° 291° (WNW) 611 1.1 -18.2°
Maximum altitude 12:23:10 50° 302° (WNW) 607 1.1 -18.2°
Drops below altitude 10° 12:26:42 10° 19° (NNE) 1,635 3.8 -17.4°
Sets 12:28:52 0° 24° (NNE) 2,517 4.9 -17.0°
